Regional Weather Roundup
Issued by NWS Huntsville, AL

Home | Current Version | Previous Version | Text Only | Print | Product List | Glossary On
Versions: 1 2 3 4 5 6 7 8 9 10 11 12 13 14 15 16 17 18 19 20 21 22 23 24 25 26 27 28 29 30 31 32 33 34 35 36 37 38 39 40 41 42 43 44 45 46 47 48 49 50
000
ASUS44 KHUN 172210
RWRHUN

WEATHER ROUNDUP FOR THE TENNESSEE VALLEY
NATIONAL WEATHER SERVICE HUNTSVILLE AL
500 PM CDT WED SEP 17 2014

ALZ001>004-172300-
NORTHWEST ALABAMA

CITY           SKY/WX    TMP DP  RH WIND       PRES   REMARKS
SHOALS AIRPORT PTSUNNY   79  48  33 N3        29.95F
$$

ALZ005>007-016-172300-
NORTH CENTRAL ALABAMA

CITY           SKY/WX    TMP DP  RH WIND       PRES   REMARKS
DECATUR AP     MOSUNNY   80  46  30 N9        29.95S
HUNTSVILLE AP  PTSUNNY   81  49  32 N8        29.95F
HUN NWS/UAH      N/A     79  49  34 NW8         N/A
MERIDIANVILLE  SUNNY     77  41  27 N7        29.97S
VINEMONT AP    FAIR      80  52  37 NW6       29.98F
$$

ALZ008>010-172300-
NORTHEAST ALABAMA

CITY           SKY/WX    TMP DP  RH WIND       PRES   REMARKS
ALBERTVILLE    SUNNY     77  61  57 N7        29.95S
FORT PAYNE     SUNNY     77  46  33 N9        29.95S
SCOTTSBORO AP  SUNNY     77  55  47 N6        29.95F
SCOTTSBORO HCN   N/A     77 N/A N/A MISG        N/A
VALLEY HEAD      N/A     77 N/A N/A MISG        N/A
$$

TNZ076-096-097-172300-
SOUTHEASTERN MIDDLE TENNESSEE

CITY           SKY/WX    TMP DP  RH WIND       PRES   REMARKS
FAYETTEVILLE   SUNNY     72  54  53 N7        29.98S
TULLAHOMA      SUNNY     72  54  53 N8        29.99F
WINCHESTER     SUNNY     73  54  49 N7        29.97F
$$

...SURROUNDING SITES...

CITY           SKY/WX    TMP DP  RH WIND       PRES   REMARKS
ATLANTA        PTSUNNY   84  59  42 NW14      29.90S
ANNISTON       PTSUNNY   85  57  38 NW9       29.92R
BIRMINGHAM     MOSUNNY   83  58  42 N9        29.95S
CHATTANOOGA    PTSUNNY   78  57  48 N8        29.96R
CORINTH        PTSUNNY   75  61  60 NW5       29.95R
DALTON         SUNNY     75  59  57 N6        29.95R
GADSDEN        MOSUNNY   84  48  28 N9        29.93S
GOLDEN TRNGL   MOSUNNY   88  66  48 NW5       29.94F HX  90
HALEYVILLE     FAIR      80  60  50 CALM      29.99S
JACKSON TN     CLOUDY    69  60  73 CALM      29.95F
LEWISBURG      FAIR      72  57  58 CALM      29.99S
MEMPHIS        CLOUDY    75  62  64 N9        29.99R
MURFREESBORO   FAIR      70  55  58 N7        29.98F
NASHVILLE      CLOUDY    72  56  57 E5        29.98F
OXFORD MS      PTSUNNY   77  64  65 N3        29.97S
ROME           SUNNY     82  57  42 NW9       29.92R
SAVANNAH       SUNNY     72  55  56 W5        29.96R
TUPELO         PTSUNNY   80  64  58 E6        29.94F
TUSCALOOSA     MOSUNNY   88  65  46 NW9       29.92S HX  90
$$

...GULF COAST WEATHER...

CITY           SKY/WX    TMP DP  RH WIND       PRES   REMARKS
GULFPORT       MOSUNNY   86  72  62 S8        29.88F HX  92
PASCAGOULA     SUNNY     86  73  65 S7        29.89F HX  93
MOBILE         MOSUNNY   86  75  69 SW10      29.89F HX  95
GULF SHORES    PTCLDY    84  73  69 S6        29.89F HX  90
PENSACOLA      PTSUNNY   83  73  72 SW9       29.88F
DESTIN         SUNNY     87  73  62 SW7       29.88F HX  94
PANAMA CITY    SUNNY     85  76  73 SW9       29.87F HX  95
APPALACHICOLA  MOSUNNY   85  71  63 S8        29.87F HX  90
$$



USA.gov is the U.S. government's official web portal to all federal, state and local government web resources and services.